SCP
0 0 0 0 0 0 0 0 0 0 0 0 0 0 1 1 1 1 1 1 1 1 1 1 1 1 1 0 0 0 1 1 1 1 0 0 0 0 1 1 1 0 0 0
0 0 0 0 0 0 0 0 0 0 0 0 0 0 0 1 1 1 1 1 1 1 1 1 1 1 1 1 1 1 1 1 1 1 1 0 0 0 1 1 0 0 0 0
0 0 0 0 0 0 0 0 0 0 0 0 0 0 0 1 1 1 1 1 1 1 1 1 1 1 1 1 1 1 1 1 1 1 1 1 1 0 0 0 0 0 0 0
0 0 0 0 0 0 0 0 0 0 0 0 0 0 0 0 0 0 1 1 1 1 1 1 1 1 1 1 1 1 1 1 1 1 1 1 1 0 0 0 0 0 0 0
0 0 0 0 0 0 0 0 0 0 0 0 0 0 0 0 0 0 0 1 1 1 1 1 1 1 1 1 1 1 1 1 1 1 1 1 1 0 0 0 0 0 0 0
0 0 0 0 0 0 0 0 0 0 0 0 0 0 0 0 0 0 0 1 1 1 1 1 2 2 1 1 1 1 1 1 1 1 1 1 1 1 1 1 0 0 0 0
0 0 0 0 0 0 0 0 0 0 0 0 0 0 0 0 0 0 0 1 1 1 1 1 2 2 2 2 1 1 1 1 2 1 1 1 1 1 1 1 1 1 0 0
0 0 0 0 0 0 0 0 0 0 0 0 0 0 0 0 0 0 0 1 1 1 1 1 2 2 2 2 2 2 2 2 2 2 2 1 1 2 2 1 1 1 1 0
0 0 0 0 0 0 0 0 0 0 0 0 0 0 0 0 0 0 0 1 1 1 1 1 1 2 2 2 2 2 2 2 2 2 2 2 1 1 2 1 1 1 1 1
0 0 0 0 0 0 0 0 0 0 0 0 0 0 0 0 0 0 0 0 1 1 1 1 1 1 2 2 2 2 2 2 2 3 3 2 2 1 1 1 1 1 1 1
0 0 0 0 0 1 0 0 0 0 0 0 0 0 0 0 0 0 0 0 1 1 1 1 1 1 2 2 2 2 2 1 2 2 2 2 2 2 1 1 1 1 1 1
0 0 0 0 0 0 1 0 0 0 0 0 0 0 0 0 0 0 0 0 1 1 1 1 1 1 1 2 2 3 2 2 1 1 2 2 2 2 2 2 1 1 1 1
0 0 0 0 0 0 0 0 0 0 0 0 0 0 0 0 0 0 0 0 1 1 1 1 1 1 1 1 2 2 3 2 2 2 1 1 2 2 2 2 2 2 1 1
0 0 0 0 0 0 0 0 0 0 0 0 0 0 0 0 0 0 0 1 1 1 1 1 1 1 1 1 1 2 2 3 3 2 2 2 2 2 2 2 2 2 1 1
0 0 0 0 0 0 0 0 0 0 0 0 0 0 0 0 0 0 0 1 1 1 1 1 1 1 1 1 1 1 2 2 3 3 2 2 2 2 2 2 2 2 2 1
0 0 0 0 0 0 0 0 0 0 0 0 0 0 0 0 0 0 0 1 1 1 1 1 1 1 1 1 1 1 1 1 2 2 3 3 2 2 2 1 1 1 1 1
0 0 0 0 0 0 0 0 0 0 0 0 0 0 0 0 0 0 0 1 1 1 1 1 1 1 1 1 1 1 1 1 1 1 2 3 3 3 2 1 0 0 1 1
0 0 0 0 0 0 0 0 0 0 0 0 0 0 0 0 0 0 0 0 1 1 1 1 1 1 1 1 1 1 1 1 1 1 2 3 4 4 2 1 0 0 0 0
0 0 0 0 0 0 0 0 0 0 0 0 0 0 0 0 0 0 0 0 0 0 1 1 1 1 1 1 1 0 0 0 0 0 1 3 5 5 3 1 0 0 0 0
0 0 0 0 0 0 0 0 0 0 0 0 0 0 0 0 0 0 0 0 0 0 1 1 1 1 1 1 0 0 0 0 0 0 1 2 4 5 4 2 1 0 0 0
0 0 0 0 0 0 0 0 0 0 0 0 0 0 0 0 0 0 0 0 1 1 1 1 1 1 1 1 0 0 0 1 1 1 1 2 4 5 4 2 1 0 0 0
0 0 0 0 0 0 0 0 0 0 0 0 0 0 0 0 0 0 0 1 1 1 1 2 2 1 1 1 0 0 1 1 1 1 1 2 4 5 5 3 1 1 0 0
0 0 0 0 0 0 0 0 0 0 0 0 0 0 0 0 0 0 0 1 1 1 1 2 2 1 1 1 1 1 1 1 1 1 2 3 4 5 5 3 2 1 0 0
0 0 0 0 0 0 0 0 0 0 0 0 0 0 0 0 0 0 0 1 1 1 1 2 2 1 1 1 1 1 1 1 1 1 2 4 5 5 4 3 2 1 0 0
0 0 0 0 0 0 0 0 0 0 0 0 0 0 0 1 0 0 1 0 0 1 1 2 2 2 1 1 1 1 1 1 1 1 3 5 5 4 4 3 1 1 0 0
0 0 0 0 0 0 0 0 0 0 0 0 0 0 1 1 1 1 1 0 0 1 1 2 2 2 1 1 1 1 1 1 1 2 4 5 5 4 3 2 1 0 0 0
Wind_Speed
6 5 5 5 5 5 4 3 2 2 4 5 5 6 7 7 7 6 7 8 8 8 8 7 6 6 6 5 5 5 5 4 3 2 3 2 2 2 2 3 3 4 4 4
5 6 4 4 4 5 4 3 2 1 3 4 4 5 7 8 8 7 7 7 8 9 9 8 7 6 5 5 5 6 5 4 4 3 3 2 2 2 2 2 3 3 3 4
6 3 4 6 5 5 5 4 3 2 3 4 4 5 7 9 8 8 7 7 7 9 10 10 8 7 5 5 5 4 5 5 5 4 3 3 2 2 2 2 2 2 3 3
5 4 4 6 6 5 3 3 4 5 5 4 7 4 6 9 9 8 7 6 7 8 9 9 9 8 7 5 5 5 4 5 6 5 3 4 3 2 2 2 2 2 2 2
5 4 5 6 4 4 3 4 5 6 6 6 7 5 4 7 9 9 9 8 7 8 9 10 9 8 7 6 5 5 5 5 5 5 4 3 3 3 2 3 3 3 2 2
6 4 5 5 4 4 4 6 7 7 6 7 8 6 3 5 8 9 9 9 8 8 8 8 9 7 6 6 5 4 4 4 4 5 6 5 4 4 3 3 3 2 2 1
7 7 5 5 5 5 5 4 3 4 5 5 5 4 2 4 5 7 9 9 9 8 7 8 8 8 7 7 6 5 5 4 4 4 5 6 5 5 4 4 3 3 2 2
7 7 7 7 7 6 7 8 4 3 4 2 5 4 3 6 5 6 7 8 8 8 8 7 8 7 7 7 7 6 6 5 4 4 4 5 5 3 3 3 3 3 3 2
4 4 6 7 7 7 7 7 7 7 8 5 4 3 5 6 6 6 7 8 8 8 8 8 8 8 7 7 6 7 7 5 5 4 3 3 4 4 4 3 3 3 3 3
5 4 5 5 6 8 8 6 5 5 4 5 3 3 3 6 6 6 7 7 8 8 7 8 8 8 7 6 5 6 6 6 5 5 4 3 3 4 3 3 4 4 4 4
6 5 5 6 7 7 7 8 6 4 5 4 2 1 2 5 6 6 6 7 7 8 8 7 7 7 7 6 6 5 5 5 5 5 5 4 4 4 4 3 4 4 4 4
5 5 6 7 6 6 8 8 8 4 5 5 3 1 1 3 5 6 6 6 6 7 7 7 7 7 6 6 6 6 6 6 5 4 5 4 4 4 4 4 4 5 4 3
4 5 6 5 6 7 7 7 8 7 6 5 4 2 2 2 4 4 5 6 6 7 7 7 7 6 6 6 6 6 6 6 6 5 5 4 4 4 4 4 4 5 4 4
5 7 8 7 4 4 7 9 9 8 6 6 4 3 2 2 4 4 4 5 5 6 6 6 6 6 6 6 6 6 6 6 6 5 5 4 4 4 4 4 4 4 4 4
6 9 11 10 8 8 8 9 10 11 9 8 5 4 3 3 3 4 4 4 5 5 6 6 6 6 6 5 5 5 5 5 6 5 5 5 5 4 3 3 3 3 3 4
7 9 10 12 11 11 12 11 11 11 10 9 7 5 1 2 3 3 3 4 4 5 6 6 6 6 6 6 5 5 5 6 6 6 5 5 5 5 3 3 3 3 3 3
7 8 9 9 9 11 13 12 11 10 9 7 6 3 1 2 3 2 3 4 4 5 5 4 6 6 7 7 6 6 6 6 6 6 6 6 6 6 5 4 3 4 3 3
8 9 6 8 9 12 6 4 6 8 8 6 4 2 2 2 2 2 2 3 4 4 5 5 4 5 6 7 7 7 6 6 6 6 7 6 6 6 5 4 4 4 4 3
9 8 6 6 8 9 6 4 5 6 6 4 3 2 2 3 2 2 2 2 2 3 3 3 4 4 5 6 7 8 7 7 6 7 7 7 6 6 6 5 4 4 3 4
9 8 7 7 8 8 3 1 2 4 4 2 2 2 1 2 2 1 2 3 3 3 3 3 3 4 4 4 6 7 7 7 7 7 7 7 7 7 6 5 4 3 3 4
9 9 10 10 10 6 2 1 2 4 1 0 0 0 1 1 1 1 2 3 3 3 3 3 2 3 3 4 5 6 6 7 6 6 7 7 7 7 6 5 4 4 3 4
7 6 7 7 8 5 1 1 2 2 2 2 2 2 2 2 2 2 3 3 3 3 3 3 2 2 2 3 4 5 5 6 6 6 6 7 7 7 6 5 4 4 4 4
6 5 3 4 3 0 1 2 3 4 4 4 3 3 2 1 1 2 2 2 2 3 3 3 3 2 2 2 3 4 3 5 6 6 6 6 7 6 6 6 5 4 4 4
5 4 5 5 3 2 1 2 3 3 5 5 4 3 2 0 1 1 1 1 2 2 3 3 3 2 2 2 2 2 3 5 6 6 5 5 6 6 5 5 4 4 4 4
5 5 6 6 5 3 3 3 4 3 3 4 3 3 3 1 1 1 1 2 2 1 2 3 3 3 3 3 3 3 3 4 5 6 6 5 5 5 5 4 3 4 3 4
7 7 7 6 5 5 5 5 4 4 4 3 4 4 3 2 2 1 1 1 2 2 2 2 2 3 3 3 3 4 3 5 5 5 5 5 4 5 5 4 3 2 2 4
Wind_Direction
214 223 231 229 223 246 252 218 203 175 175 201 197 191 182 183 189 188 180 178 173 173 164 154 157 160 162 165 155 143 139 132 119 109 102 97 90 80 74 69 59 51 49 45
215 229 232 236 224 230 240 243 215 188 184 216 209 208 194 186 192 196 195 187 178 168 163 156 159 163 168 162 156 146 142 136 125 108 114 117 105 101 95 75 64 63 57 48
228 224 216 228 223 230 231 245 235 225 202 221 236 228 207 186 187 194 203 190 182 172 169 163 166 162 165 166 158 149 146 140 129 130 121 115 102 93 97 96 76 63 69 61
239 228 227 227 228 240 243 238 241 238 232 226 225 237 214 186 184 194 199 192 185 176 169 164 167 167 172 169 155 161 163 149 142 143 141 145 136 134 135 126 127 111 96 85
236 222 222 234 237 240 250 240 244 247 253 256 239 244 215 173 184 191 191 189 182 177 173 167 168 170 170 164 162 171 166 149 149 151 146 149 143 148 137 126 128 125 110 109
243 236 239 242 244 235 239 241 243 246 252 249 233 231 199 189 187 183 183 183 179 175 168 165 164 163 163 155 157 164 154 149 153 159 159 160 149 147 139 139 141 136 120 101
227 224 221 224 233 219 235 247 240 224 225 236 213 227 189 161 164 170 175 176 172 171 166 166 161 159 158 158 163 164 160 165 167 177 170 163 161 166 159 156 158 149 131 122
226 216 208 213 228 227 229 238 248 261 255 238 212 220 132 137 138 151 158 159 161 167 166 164 158 156 157 163 167 173 172 174 175 183 176 165 159 155 150 161 154 144 134 135
240 223 204 215 234 242 234 241 261 276 279 267 222 167 137 133 138 150 153 153 160 167 167 164 158 156 156 159 169 177 170 171 177 188 172 155 156 151 159 159 142 133 136 133
272 249 206 212 226 235 247 260 261 262 278 270 241 193 175 157 151 155 158 160 164 164 168 165 160 159 158 161 168 171 170 174 178 181 172 154 156 156 155 147 142 136 133 130
257 258 214 209 221 229 230 242 248 258 263 272 280 316 103 150 151 157 157 154 159 163 167 164 159 160 159 161 169 169 164 171 181 177 164 164 166 162 158 149 146 140 138 140
248 265 246 226 230 240 242 240 246 248 265 262 263 256 61 104 127 139 145 149 156 157 159 160 158 159 162 166 171 175 174 177 176 169 162 160 160 158 161 155 148 140 139 140
283 261 262 234 216 217 241 250 252 255 260 260 257 216 145 113 119 125 140 145 150 157 161 159 157 161 165 171 175 178 175 177 172 166 156 156 163 164 164 157 153 150 149 144
281 258 255 256 249 239 237 240 247 250 252 258 249 233 201 141 127 126 129 138 149 156 158 156 156 163 165 173 176 175 174 169 165 161 156 157 157 148 151 149 148 143 145 144
256 258 257 260 260 262 254 247 244 242 246 256 259 249 223 158 143 143 145 150 149 154 157 161 161 162 162 169 172 170 167 162 161 158 157 156 142 132 130 137 142 132 131 129
250 263 267 260 253 255 254 244 241 244 243 250 256 259 230 150 131 131 150 155 160 166 167 170 168 165 167 172 170 167 164 164 163 165 157 142 137 131 130 138 141 129 122 120
247 259 270 268 258 257 250 237 232 237 238 244 248 251 142 143 125 151 181 176 171 168 163 169 172 174 177 178 171 166 166 166 165 158 148 146 146 143 149 158 142 138 141 138
251 256 261 268 261 248 245 224 220 232 239 242 234 220 191 166 156 163 168 176 172 164 163 169 173 178 178 174 170 167 164 164 164 160 157 156 155 153 155 159 152 150 154 155
235 246 254 258 262 262 249 234 227 234 239 240 234 207 220 178 169 157 133 125 139 146 151 159 169 174 174 175 172 168 167 169 170 166 162 159 156 153 157 163 161 161 156 151
220 229 243 250 255 252 254 282 271 258 239 254 227 204 191 189 213 180 100 105 110 117 122 132 157 167 170 174 167 169 173 173 177 171 165 160 159 157 165 169 164 157 150 154
216 224 231 244 253 257 291 315 270 229 227 33 236 205 202 198 132 99 96 97 102 109 118 126 139 149 158 164 166 177 177 180 176 163 159 156 159 161 163 160 160 151 151 152
233 232 234 237 243 242 56 233 261 324 5 24 357 3 30 74 95 98 101 103 113 122 128 129 127 127 145 157 169 177 178 172 158 153 157 158 158 162 160 156 159 160 161 159
240 247 256 245 247 351 20 342 333 349 345 352 356 10 47 53 115 115 121 123 134 139 144 138 135 139 144 156 167 171 162 151 147 151 157 159 157 157 155 157 161 167 166 165
264 268 259 259 257 270 304 293 302 337 332 334 342 353 353 255 148 146 158 144 135 139 141 143 150 152 152 159 168 164 146 151 151 154 155 155 156 154 154 156 165 172 175 175
284 290 281 277 274 284 294 296 312 321 322 320 326 324 313 297 252 211 184 154 140 140 145 155 165 168 170 162 164 153 152 154 157 160 162 164 156 153 150 148 160 170 178 183
264 267 265 269 285 294 293 303 312 314 308 304 304 302 304 289 273 229 187 151 152 161 153 163 172 174 173 164 163 159 158 162 168 172 167 162 155 153 153 150 137 112 146 157